EN

Hourly Weather Lacey

Today, 24 July, Saturday

Time Temperature Precipitation Wind Pressure Humidity
00:00 +15°C° 0 mm 1 mps 761 mmHg 91%
01:00 +14°C° 0 mm 0 mps 761 mmHg 93%
02:00 +13°C° 0 mm 0 mps 761 mmHg 94%
03:00 +13°C° 0 mm 0 mps 761 mmHg 94%
04:00 +13°C° 0 mm 1 mps 760 mmHg 95%
05:00 +15°C° 0 mm 1 mps 761 mmHg 88%
06:00 +18°C° 0 mm 1 mps 761 mmHg 81%
07:00 +19°C° 0 mm 1 mps 761 mmHg 75%
08:00 +22°C° 0 mm 1 mps 760 mmHg 64%
09:00 +25°C° 0 mm 1 mps 760 mmHg 54%
10:00 +27°C° 0 mm 1 mps 760 mmHg 44%
11:00 +29°C° 0 mm 2 mps 759 mmHg 40%
12:00 +31°C° 0 mm 2 mps 759 mmHg 36%
13:00 +32°C° 0 mm 2 mps 758 mmHg 32%
14:00 +32°C° 0 mm 2 mps 758 mmHg 31%
15:00 +34°C° 0 mm 2 mps 757 mmHg 31%
16:00 +34°C° 0 mm 2 mps 757 mmHg 30%
17:00 +31°C° 0 mm 2 mps 757 mmHg 37%
18:00 +28°C° 0 mm 2 mps 756 mmHg 45%
19:00 +26°C° 0 mm 2 mps 756 mmHg 52%
20:00 +23°C° 0 mm 1 mps 757 mmHg 62%
21:00 +21°C° 0 mm 1 mps 757 mmHg 72%
22:00 +18°C° 0 mm 1 mps 757 mmHg 82%
23:00 +16°C° 0 mm 1 mps 757 mmHg 86%

Tomorrow, 25 July, Sunday

Time Temperature Precipitation Wind Pressure Humidity
00:00 +15°C° 0 mm 1 mps 757 mmHg 90%
01:00 +14°C° 0 mm 1 mps 757 mmHg 95%
02:00 +14°C° 0 mm 1 mps 758 mmHg 95%
03:00 +14°C° 0 mm 1 mps 758 mmHg 96%
04:00 +13°C° 0 mm 1 mps 758 mmHg 97%
05:00 +14°C° 0 mm 0 mps 758 mmHg 91%
06:00 +15°C° 0 mm 0 mps 758 mmHg 85%
07:00 +16°C° 0 mm 0 mps 758 mmHg 79%
08:00 +21°C° 0 mm 1 mps 758 mmHg 69%
09:00 +24°C° 0 mm 1 mps 758 mmHg 58%
10:00 +26°C° 0 mm 1 mps 758 mmHg 48%
11:00 +28°C° 0 mm 1 mps 757 mmHg 44%
12:00 +30°C° 0 mm 1 mps 757 mmHg 39%
13:00 +32°C° 0 mm 1 mps 757 mmHg 34%
14:00 +32°C° 0 mm 2 mps 756 mmHg 34%
15:00 +32°C° 0 mm 2 mps 756 mmHg 33%
16:00 +32°C° 0 mm 2 mps 755 mmHg 32%
17:00 +29°C° 0 mm 2 mps 755 mmHg 39%
18:00 +27°C° 0 mm 2 mps 755 mmHg 45%
19:00 +24°C° 0 mm 2 mps 755 mmHg 52%
20:00 +21°C° 0 mm 2 mps 756 mmHg 61%
21:00 +19°C° 0 mm 1 mps 756 mmHg 71%
22:00 +16°C° 0 mm 1 mps 757 mmHg 80%
23:00 +15°C° 0 mm 1 mps 757 mmHg 84%

Day after tomorrow, 26 July, Monday

Time Temperature Precipitation Wind Pressure Humidity
00:00 +14°C° 0 mm 1 mps 757 mmHg 87%
01:00 +13°C° 0 mm 1 mps 757 mmHg 91%
02:00 +12°C° 0 mm 0 mps 757 mmHg 92%
03:00 +12°C° 0 mm 0 mps 757 mmHg 93%
04:00 +11°C° 0 mm 0 mps 757 mmHg 94%
05:00 +13°C° 0 mm 0 mps 757 mmHg 87%
06:00 +14°C° 0 mm 0 mps 757 mmHg 80%
07:00 +16°C° 0 mm 0 mps 757 mmHg 73%
08:00 +19°C° 0 mm 0 mps 757 mmHg 63%
09:00 +22°C° 0 mm 0 mps 757 mmHg 54%
10:00 +24°C° 0 mm 0 mps 757 mmHg 44%
11:00 +26°C° 0 mm 0 mps 756 mmHg 40%
12:00 +30°C° 0 mm 1 mps 756 mmHg 37%
13:00 +31°C° 0 mm 1 mps 756 mmHg 33%
14:00 +32°C° 0 mm 1 mps 755 mmHg 32%
15:00 +32°C° 0 mm 1 mps 755 mmHg 31%
16:00 +32°C° 0 mm 1 mps 754 mmHg 30%
17:00 +30°C° 0 mm 1 mps 755 mmHg 38%
18:00 +27°C° 0 mm 1 mps 755 mmHg 45%
19:00 +25°C° 0 mm 1 mps 755 mmHg 52%
20:00 +22°C° 0 mm 1 mps 756 mmHg 61%
21:00 +20°C° 0 mm 1 mps 756 mmHg 70%
22:00 +18°C° 0 mm 1 mps 756 mmHg 79%
23:00 +16°C° 0 mm 1 mps 757 mmHg 83%

27 July, Tuesday

Time Temperature Precipitation Wind Pressure Humidity
00:00 +15°C° 0 mm 1 mps 757 mmHg 87%
01:00 +14°C° 0 mm 1 mps 757 mmHg 91%
02:00 +13°C° 0 mm 0 mps 757 mmHg 92%
03:00 +13°C° 0 mm 0 mps 757 mmHg 94%
04:00 +12°C° 0 mm 0 mps 757 mmHg 95%
05:00 +14°C° 0 mm 0 mps 758 mmHg 89%
06:00 +15°C° 0 mm 0 mps 758 mmHg 82%
07:00 +16°C° 0 mm 0 mps 758 mmHg 75%
08:00 +19°C° 0 mm 0 mps 758 mmHg 66%
09:00 +21°C° 0 mm 0 mps 758 mmHg 57%
10:00 +24°C° 0 mm 0 mps 759 mmHg 48%
11:00 +25°C° 0 mm 0 mps 758 mmHg 46%
12:00 +27°C° 0 mm 1 mps 758 mmHg 43%
13:00 +28°C° 0 mm 1 mps 758 mmHg 40%
14:00 +29°C° 0 mm 1 mps 758 mmHg 39%
15:00 +29°C° 0 mm 1 mps 758 mmHg 39%
16:00 +29°C° 0 mm 1 mps 758 mmHg 38%
17:00 +27°C° 0 mm 1 mps 758 mmHg 44%
18:00 +25°C° 0 mm 2 mps 758 mmHg 50%
19:00 +24°C° 0 mm 2 mps 758 mmHg 55%
20:00 +21°C° 0 mm 1 mps 759 mmHg 63%
21:00 +19°C° 0 mm 1 mps 759 mmHg 70%
22:00 +16°C° 0 mm 1 mps 760 mmHg 78%
23:00 +15°C° 0 mm 1 mps 760 mmHg 82%

28 July, Wednesday

Time Temperature Precipitation Wind Pressure Humidity
00:00 +14°C° 0 mm 1 mps 760 mmHg 86%
01:00 +13°C° 0 mm 1 mps 760 mmHg 91%
02:00 +13°C° 0 mm 1 mps 760 mmHg 92%
03:00 +12°C° 0 mm 1 mps 760 mmHg 93%
04:00 +11°C° 0 mm 0 mps 760 mmHg 94%
05:00 +13°C° 0 mm 0 mps 761 mmHg 87%
06:00 +14°C° 0 mm 0 mps 761 mmHg 79%
07:00 +16°C° 0 mm 0 mps 761 mmHg 71%
08:00 +19°C° 0 mm 0 mps 761 mmHg 61%
09:00 +22°C° 0 mm 0 mps 761 mmHg 50%
10:00 +25°C° 0 mm 0 mps 761 mmHg 40%
11:00 +27°C° 0 mm 0 mps 761 mmHg 37%
12:00 +30°C° 0 mm 1 mps 760 mmHg 34%
13:00 +32°C° 0 mm 1 mps 760 mmHg 31%
14:00 +33°C° 0 mm 1 mps 760 mmHg 30%
15:00 +33°C° 0 mm 1 mps 759 mmHg 30%
16:00 +34°C° 0 mm 2 mps 759 mmHg 30%
17:00 +31°C° 0 mm 2 mps 759 mmHg 34%
18:00 +28°C° 0 mm 2 mps 759 mmHg 38%
19:00 +26°C° 0 mm 2 mps 759 mmHg 43%
20:00 +23°C° 0 mm 1 mps 759 mmHg 51%
21:00 +21°C° 0 mm 1 mps 759 mmHg 58%
22:00 +18°C° 0 mm 1 mps 760 mmHg 66%
23:00 +16°C° 0 mm 1 mps 760 mmHg 69%

29 July, Thursday

Time Temperature Precipitation Wind Pressure Humidity
00:00 +14°C° 0 mm 0 mps 760 mmHg 72%
01:00 +14°C° 0 mm 0 mps 760 mmHg 74%
02:00 +13°C° 0 mm 0 mps 760 mmHg 75%
03:00 +13°C° 0 mm 0 mps 760 mmHg 76%
04:00 +12°C° 0 mm 0 mps 760 mmHg 77%
05:00 +14°C° 0 mm 0 mps 760 mmHg 71%
06:00 +16°C° 0 mm 0 mps 760 mmHg 64%
07:00 +18°C° 0 mm 0 mps 760 mmHg 57%
08:00 +22°C° 0 mm 1 mps 759 mmHg 50%
09:00 +25°C° 0 mm 1 mps 759 mmHg 42%
10:00 +28°C° 0 mm 1 mps 759 mmHg 35%
11:00 +30°C° 0 mm 1 mps 758 mmHg 31%
12:00 +32°C° 0 mm 2 mps 758 mmHg 28%
13:00 +35°C° 0 mm 2 mps 757 mmHg 24%
14:00 +35°C° 0 mm 2 mps 757 mmHg 24%
15:00 +35°C° 0 mm 2 mps 756 mmHg 23%
16:00 +36°C° 0 mm 2 mps 756 mmHg 22%
17:00 +32°C° 0 mm 2 mps 756 mmHg 30%
18:00 +29°C° 0 mm 2 mps 756 mmHg 37%
19:00 +27°C° 0 mm 1 mps 756 mmHg 45%
20:00 +24°C° 0 mm 1 mps 756 mmHg 51%
21:00 +22°C° 0 mm 1 mps 756 mmHg 58%
22:00 +18°C° 0 mm 0 mps 756 mmHg 64%
23:00 +17°C° 0 mm 0 mps 756 mmHg 67%
Show more